Weather History for Danville, KY

Change the Weather History Date:

Wednesday, April 24, 2013

  Actual Average (KLEX) Record (KLEX)
Temperature  
Mean Temperature 52 °F 58 °F  
Max Temperature 62 °F 69 °F 90 °F (1925)
Min Temperature 41 °F 47 °F 28 °F (1910)
Degree Days  
Heating Degree Days 14 8  
Month to date heating degree days 270  
Since 1 July heating degree days 4446  
Cooling Degree Days 0 1  
Month to date cooling degree days 15  
Year to date cooling degree days 17  
Growing Degree Days 2 (Base 50)    
Moisture  
Dew Point 45 °F    
Average Humidity 77    
Maximum Humidity 94    
Minimum Humidity 63    
Precipitation  
Precipitation 0.00 in 0.13 in 2.38 in (1975)
Month to date precipitation 2.79  
Year to date precipitation 13.26  
Snow  
Snow 0.00 in 0.00 in 0.00 in ()
Month to date snowfall 0.3  
Since 1 July snowfall 13.0  
Snow Depth -    
Sea Level Pressure  
Sea Level Pressure 30.02 in    
Wind  
Wind Speed 9 mph (WSW)    
Max Wind Speed 26 mph    
Max Gust Speed 37 mph    
Visibility 9 miles    
Events Rain    
T = Trace of Precipitation, MM = Missing Value Source: NWS Daily Summary

Daily Weather History Graph

Daily Weather History Graph

Search for Another Location

Airport:

Trip Planner

Search our weather history database for the weather conditions in past years. The results will help you decide how hot, cold, wet, or windy it might be!

Date:

Astronomy

Apr. 24, 2013 Rise Set
Actual Time 6:51 AM EDT 8:23 PM EDT
Civil Twilight 6:24 AM EDT 8:50 PM EDT
Nautical Twilight 5:51 AM EDT 9:24 PM EDT
Astronomical Twilight 5:16 AM EDT 9:59 PM EDT
Moon 7:26 PM EDT (4/24) 5:53 AM EDT (4/24)
Length of Visible Light 14h 26m
Length of Day
13h 31m
Waxing Gibbous, 98% of the Moon is Illuminated
Apr 24
Waxing Gibbous
Apr 25
Full
May 2
Last Quarter
May 9
New
May 18
First Quarter

Hourly Weather History & Observations

Time (EDT) Temp. Windchill Dew Point Humidity Pressure Visibility Wind Dir Wind Speed Gust Speed Precip Events Conditions
12:15 AM 55.4 °F - 46.4 °F 72% 29.98 in 10.0 mi SW 8.1 mph - N/A   Clear
12:35 AM 59.0 °F - 46.4 °F 63% 29.98 in 10.0 mi SSW 9.2 mph - N/A   Clear
12:55 AM 57.2 °F - 46.4 °F 67% 29.98 in 10.0 mi SW 6.9 mph - N/A   Scattered Clouds
1:15 AM 57.2 °F - 46.4 °F 67% 29.98 in 10.0 mi SSW 8.1 mph - N/A   Clear
1:35 AM 57.2 °F - 46.4 °F 67% 29.96 in 10.0 mi SSW 9.2 mph - N/A   Clear
1:55 AM 59.0 °F - 46.4 °F 63% 29.95 in 10.0 mi SSW 10.4 mph - N/A   Clear
2:15 AM 59.0 °F - 46.4 °F 63% 29.94 in 10.0 mi SSW 11.5 mph - N/A   Clear
2:35 AM 59.0 °F - 48.2 °F 67% 29.94 in 10.0 mi SW 9.2 mph - N/A   Clear
2:55 AM 60.8 °F - 48.2 °F 63% 29.93 in 10.0 mi SSW 9.2 mph - N/A   Clear
3:15 AM 60.8 °F - 48.2 °F 63% 29.92 in 10.0 mi SSW 9.2 mph - N/A   Clear
3:35 AM 59.0 °F - 48.2 °F 67% 29.91 in 10.0 mi SSW 8.1 mph - N/A   Clear
3:55 AM 59.0 °F - 48.2 °F 67% 29.91 in 10.0 mi SSW 8.1 mph - N/A   Clear
4:15 AM 59.0 °F - 48.2 °F 67% 29.90 in 10.0 mi SSW 6.9 mph - N/A   Clear
4:35 AM 57.2 °F - 48.2 °F 72% 29.91 in 10.0 mi South 5.8 mph - N/A   Clear
4:55 AM 57.2 °F - 48.2 °F 72% 29.91 in 10.0 mi South 8.1 mph - N/A   Clear
5:15 AM 57.2 °F - 48.2 °F 72% 29.91 in 10.0 mi South 5.8 mph - N/A   Scattered Clouds
5:35 AM 57.2 °F - 48.2 °F 72% 29.90 in 10.0 mi South 6.9 mph - N/A   Scattered Clouds
5:55 AM 57.2 °F - 48.2 °F 72% 29.90 in 10.0 mi SSW 8.1 mph - N/A   Clear
6:15 AM 57.2 °F - 48.2 °F 72% 29.89 in 10.0 mi SSW 8.1 mph - N/A   Clear
6:35 AM 57.2 °F - 48.2 °F 72% 29.89 in 10.0 mi SSW 9.2 mph - N/A   Scattered Clouds
6:55 AM 59.0 °F - 48.2 °F 67% 29.87 in 10.0 mi SSW 8.1 mph - N/A   Scattered Clouds
7:15 AM 59.0 °F - 50.0 °F 72% 29.89 in 10.0 mi SW 6.9 mph - N/A   Mostly Cloudy
7:35 AM 59.0 °F - 50.0 °F 72% 29.89 in 10.0 mi SW 5.8 mph - N/A   Overcast
7:55 AM 59.0 °F - 50.0 °F 72% 29.89 in 10.0 mi SSW 6.9 mph - N/A   Overcast
8:15 AM 59.0 °F - 51.8 °F 77% 29.88 in 10.0 mi SSW 6.9 mph - N/A Rain Light Rain
8:35 AM 59.0 °F - 51.8 °F 77% 29.87 in 10.0 mi SSW 11.5 mph 16.1 mph N/A Rain Light Rain
8:55 AM 60.8 °F - 51.8 °F 72% 29.87 in 10.0 mi SSW 11.5 mph - N/A   Mostly Cloudy
9:15 AM 60.8 °F - 51.8 °F 72% 29.85 in 10.0 mi SSW 11.5 mph 18.4 mph N/A   Mostly Cloudy
9:35 AM 60.8 °F - 51.8 °F 72% 29.87 in 10.0 mi SW 10.4 mph - N/A   Overcast
9:55 AM 60.8 °F - 51.8 °F 72% 29.84 in 10.0 mi SSW 11.5 mph 19.6 mph N/A Rain Light Rain
10:15 AM 62.6 °F - 53.6 °F 72% 29.85 in 10.0 mi SSW 17.3 mph 25.3 mph N/A   Overcast
10:35 AM 62.6 °F - 53.6 °F 72% 29.86 in 10.0 mi SW 21.9 mph 26.5 mph N/A   Overcast
10:55 AM 60.8 °F - 55.4 °F 82% 29.92 in 3.0 mi WSW 17.3 mph 24.2 mph N/A Rain Heavy Rain
11:15 AM 59.0 °F - 55.4 °F 88% 29.94 in 1.2 mi NW 16.1 mph 33.4 mph N/A Rain Heavy Rain
11:35 AM 53.6 °F - 51.8 °F 94% 29.96 in 3.0 mi SW 9.2 mph - N/A Rain Heavy Rain
11:55 AM 53.6 °F - 51.8 °F 94% 29.95 in 4.0 mi SW 12.7 mph 18.4 mph N/A Rain Rain
12:15 PM 55.4 °F - 53.6 °F 94% 29.94 in 5.0 mi SSW 11.5 mph 17.3 mph N/A Rain Rain
12:35 PM 55.4 °F - 53.6 °F 94% 29.94 in 4.0 mi SW 16.1 mph 23.0 mph N/A Rain Rain
12:55 PM 53.6 °F - 51.8 °F 94% 29.99 in 5.0 mi WNW 26.5 mph 36.8 mph N/A Rain Rain
1:15 PM 46.4 °F 40.4 °F 44.6 °F 93% 30.02 in 3.0 mi WNW 13.8 mph 33.4 mph N/A   Overcast
1:35 PM 46.4 °F 39.2 °F 44.6 °F 93% 30.02 in 7.0 mi WNW 18.4 mph 32.2 mph N/A   Overcast
1:55 PM 46.4 °F 40.4 °F 42.8 °F 87% 30.03 in 10.0 mi WNW 13.8 mph 24.2 mph N/A   Overcast
2:35 PM 44.6 °F 39.7 °F 42.8 °F 93% 30.05 in 10.0 mi West 9.2 mph - N/A   Overcast
2:55 PM 46.4 °F 41.9 °F 42.8 °F 87% 30.06 in 10.0 mi WNW 9.2 mph 20.7 mph N/A   Overcast
3:15 PM 46.4 °F 41.5 °F 41.0 °F 81% 30.07 in 10.0 mi WNW 10.4 mph 19.6 mph N/A   Overcast
3:35 PM 44.6 °F 38.4 °F 41.0 °F 87% 30.09 in 10.0 mi WNW 12.7 mph 23.0 mph N/A   Overcast
3:55 PM 44.6 °F 37.8 °F 41.0 °F 87% 30.10 in 10.0 mi WNW 15.0 mph 24.2 mph N/A   Overcast
4:15 PM 44.6 °F 39.2 °F 41.0 °F 87% 30.11 in 10.0 mi WNW 10.4 mph 18.4 mph N/A   Overcast
4:35 PM 44.6 °F 38.1 °F 41.0 °F 87% 30.13 in 10.0 mi WNW 13.8 mph 18.4 mph N/A   Overcast
4:55 PM 42.8 °F 36.6 °F 39.2 °F 87% 30.13 in 10.0 mi NW 11.5 mph 17.3 mph N/A   Overcast
5:15 PM 42.8 °F 39.3 °F 37.4 °F 81% 30.14 in 10.0 mi NW 5.8 mph 16.1 mph N/A   Overcast
5:35 PM 44.6 °F 39.2 °F 37.4 °F 76% 30.15 in 10.0 mi WNW 10.4 mph - N/A   Overcast
5:55 PM 44.6 °F 39.2 °F 37.4 °F 76% 30.15 in 10.0 mi WNW 10.4 mph - N/A   Overcast
6:15 PM 44.6 °F 40.7 °F 37.4 °F 76% 30.17 in 10.0 mi NW 6.9 mph - N/A   Overcast
6:35 PM 44.6 °F 39.7 °F 37.4 °F 76% 30.17 in 10.0 mi WNW 9.2 mph - N/A   Overcast
6:55 PM 44.6 °F 40.7 °F 37.4 °F 76% 30.18 in 10.0 mi WNW 6.9 mph - N/A   Overcast
7:15 PM 44.6 °F 39.7 °F 37.4 °F 76% 30.19 in 10.0 mi WNW 9.2 mph - N/A   Overcast
7:35 PM 44.6 °F 42.2 °F 37.4 °F 76% 30.20 in 10.0 mi NW 4.6 mph - N/A   Overcast
7:55 PM 44.6 °F 40.7 °F 37.4 °F 76% 30.20 in 10.0 mi WNW 6.9 mph - N/A   Overcast
8:15 PM 44.6 °F 42.2 °F 37.4 °F 76% 30.21 in 10.0 mi NNW 4.6 mph - N/A   Overcast
8:35 PM 42.8 °F 39.3 °F 37.4 °F 81% 30.22 in 10.0 mi WNW 5.8 mph - N/A   Overcast
8:55 PM 42.8 °F 41.1 °F 37.4 °F 81% 30.23 in 10.0 mi NW 3.5 mph - N/A   Overcast
9:15 PM 42.8 °F 39.3 °F 37.4 °F 81% 30.23 in 10.0 mi WNW 5.8 mph - N/A   Overcast
9:35 PM 42.8 °F 38.6 °F 37.4 °F 81% 30.24 in 10.0 mi WNW 6.9 mph - N/A   Overcast
9:55 PM 42.8 °F 40.1 °F 35.6 °F 76% 30.25 in 10.0 mi West 4.6 mph - N/A   Overcast
11:15 PM 42.8 °F - 35.6 °F 76% 30.27 in 10.0 mi Calm Calm - N/A   Mostly Cloudy
11:35 PM 41.0 °F 38.0 °F 35.6 °F 81% 30.27 in 10.0 mi West 4.6 mph - N/A   Overcast
11:55 PM 41.0 °F 38.0 °F 35.6 °F 81% 30.27 in 10.0 mi WNW 4.6 mph - N/A   Mostly Cloudy